When you browse on this site, cookies collect data to enhance your experience and personalize the content and advertising you see.
Visit our Privacy Policy to learn more. By continuing to use the site, you agree to this use of cookies and data.
  • In Latvia
  • List of Countries
  • For 7 days
  • Water Temperature
  • Weather Map
  • Weather Widgets
  • user-avatar
    Login

    Hourly Weather Nizhnedonskoy

    Today, 12 December, Thursday

    Time Temperature Precipitation Wind Pressure Humidity
    00:00 +3°C° 0 mm 2 mps 765 mmHg 92%
    01:00 +2°C° 0 mm 2 mps 764 mmHg 92%
    02:00 +1°C° 0 mm 3 mps 764 mmHg 93%
    03:00 +1°C° 0 mm 2 mps 765 mmHg 93%
    04:00 +1°C° 0 mm 2 mps 764 mmHg 93%
    05:00 0°C° 0 mm 3 mps 764 mmHg 93%
    06:00 0°C° 0 mm 3 mps 764 mmHg 93%
    07:00 0°C° 0 mm 3 mps 764 mmHg 93%
    08:00 0°C° 0 mm 3 mps 764 mmHg 92%
    09:00 0°C° 0 mm 4 mps 765 mmHg 93%
    10:00 +1°C° 0 mm 4 mps 764 mmHg 89%
    11:00 +1°C° 0 mm 4 mps 764 mmHg 85%
    12:00 +3°C° 0 mm 4 mps 763 mmHg 82%
    13:00 +3°C° 0 mm 4 mps 763 mmHg 81%
    14:00 +2°C° 0 mm 5 mps 763 mmHg 80%
    15:00 +2°C° 0 mm 5 mps 763 mmHg 79%
    16:00 +2°C° 0 mm 5 mps 763 mmHg 81%
    17:00 +1°C° 0 mm 5 mps 763 mmHg 83%
    18:00 +1°C° 0 mm 5 mps 762 mmHg 85%
    19:00 +1°C° 0 mm 5 mps 763 mmHg 84%
    20:00 +1°C° 0 mm 5 mps 763 mmHg 84%
    21:00 +1°C° 0 mm 5 mps 763 mmHg 84%
    22:00 +1°C° 0 mm 5 mps 762 mmHg 83%
    23:00 +1°C° 0 mm 5 mps 762 mmHg 82%

    Tomorrow, 13 December, Friday

    Time Temperature Precipitation Wind Pressure Humidity
    00:00 +1°C° 0 mm 5 mps 762 mmHg 80%
    01:00 +1°C° 0 mm 5 mps 762 mmHg 81%
    02:00 +1°C° 0 mm 5 mps 762 mmHg 82%
    03:00 0°C° 0 mm 5 mps 762 mmHg 82%
    04:00 -1°C° 0 mm 6 mps 761 mmHg 84%
    05:00 -1°C° 0 mm 6 mps 761 mmHg 86%
    06:00 -2°C° 0 mm 6 mps 761 mmHg 88%
    07:00 -1°C° 0 mm 7 mps 761 mmHg 86%
    08:00 -1°C° 0 mm 7 mps 761 mmHg 84%
    09:00 -1°C° 0 mm 8 mps 762 mmHg 82%
    10:00 0°C° 0 mm 8 mps 761 mmHg 80%
    11:00 0°C° 0 mm 8 mps 761 mmHg 78%
    12:00 0°C° 0 mm 8 mps 760 mmHg 76%
    13:00 0°C° 0 mm 8 mps 760 mmHg 76%
    14:00 0°C° 0 mm 8 mps 760 mmHg 75%
    15:00 0°C° 0 mm 8 mps 760 mmHg 75%
    16:00 0°C° 0 mm 7 mps 760 mmHg 75%
    17:00 0°C° 0 mm 7 mps 759 mmHg 76%
    18:00 0°C° 0 mm 7 mps 759 mmHg 77%
    19:00 0°C° 0 mm 7 mps 759 mmHg 77%
    20:00 0°C° 0 mm 7 mps 760 mmHg 78%
    21:00 0°C° 0 mm 7 mps 760 mmHg 78%
    22:00 0°C° 0 mm 7 mps 760 mmHg 79%
    23:00 0°C° 0 mm 7 mps 760 mmHg 79%

    Day after tomorrow, 14 December, Saturday

    Time Temperature Precipitation Wind Pressure Humidity
    00:00 0°C° 0 mm 7 mps 759 mmHg 80%
    01:00 0°C° 0 mm 7 mps 759 mmHg 80%
    02:00 0°C° 0 mm 7 mps 759 mmHg 80%
    03:00 0°C° 0 mm 7 mps 760 mmHg 81%
    04:00 +1°C° 0 mm 6 mps 759 mmHg 82%
    05:00 +1°C° 0 mm 6 mps 759 mmHg 82%
    06:00 -1°C° 0 mm 6 mps 759 mmHg 83%
    07:00 +1°C° 0.1 mm 6 mps 759 mmHg 84%
    08:00 +1°C° 0.1 mm 6 mps 760 mmHg 86%
    09:00 +1°C° 0.1 mm 6 mps 760 mmHg 87%
    10:00 +2°C° 0 mm 6 mps 760 mmHg 85%
    11:00 +3°C° 0 mm 6 mps 760 mmHg 83%
    12:00 +4°C° 0 mm 6 mps 760 mmHg 81%
    13:00 +5°C° 0 mm 6 mps 760 mmHg 80%
    14:00 +5°C° 0 mm 6 mps 760 mmHg 79%
    15:00 +5°C° 0 mm 6 mps 760 mmHg 78%
    16:00 +6°C° 0.1 mm 5 mps 760 mmHg 81%
    17:00 +6°C° 0.1 mm 5 mps 760 mmHg 84%
    18:00 +6°C° 0.1 mm 5 mps 760 mmHg 86%
    19:00 +6°C° 0.2 mm 5 mps 760 mmHg 87%
    20:00 +6°C° 0.2 mm 5 mps 761 mmHg 88%
    21:00 +6°C° 0.2 mm 5 mps 761 mmHg 88%
    22:00 +5°C° 0.7 mm 5 mps 761 mmHg 89%
    23:00 +5°C° 0.7 mm 5 mps 761 mmHg 90%

    15 December, Sunday

    Time Temperature Precipitation Wind Pressure Humidity
    00:00 +5°C° 0.7 mm 5 mps 761 mmHg 91%
    01:00 +5°C° 0.2 mm 5 mps 761 mmHg 91%
    02:00 +4°C° 0.2 mm 6 mps 761 mmHg 92%
    03:00 +4°C° 0.2 mm 6 mps 761 mmHg 92%
    04:00 +4°C° 0 mm 6 mps 761 mmHg 92%
    05:00 +4°C° 0 mm 6 mps 761 mmHg 92%
    06:00 +5°C° 0 mm 5 mps 761 mmHg 92%
    07:00 +5°C° 0 mm 5 mps 761 mmHg 91%
    08:00 +5°C° 0 mm 5 mps 762 mmHg 90%
    09:00 +6°C° 0 mm 4 mps 762 mmHg 88%
    10:00 +6°C° 0 mm 4 mps 762 mmHg 86%
    11:00 +7°C° 0 mm 4 mps 762 mmHg 83%
    12:00 +7°C° 0 mm 4 mps 762 mmHg 81%
    13:00 +7°C° 0 mm 4 mps 762 mmHg 79%
    14:00 +7°C° 0 mm 4 mps 762 mmHg 78%
    15:00 +8°C° 0 mm 4 mps 762 mmHg 77%
    16:00 +8°C° 0 mm 3 mps 762 mmHg 81%
    17:00 +7°C° 0 mm 3 mps 762 mmHg 85%
    18:00 +5°C° 0 mm 3 mps 762 mmHg 88%
    19:00 +5°C° 0 mm 3 mps 762 mmHg 89%
    20:00 +6°C° 0 mm 2 mps 762 mmHg 91%
    21:00 +5°C° 0 mm 2 mps 763 mmHg 92%
    22:00 +5°C° 0 mm 2 mps 763 mmHg 92%
    23:00 +5°C° 0 mm 2 mps 763 mmHg 93%

    16 December, Monday

    Time Temperature Precipitation Wind Pressure Humidity
    00:00 +6°C° 0 mm 1 mps 763 mmHg 93%
    01:00 +6°C° 0 mm 1 mps 763 mmHg 93%
    02:00 +6°C° 0 mm 1 mps 763 mmHg 93%
    03:00 +6°C° 0 mm 1 mps 763 mmHg 93%
    04:00 +6°C° 0 mm 1 mps 764 mmHg 93%
    05:00 +6°C° 0 mm 1 mps 764 mmHg 92%
    06:00 +6°C° 0 mm 1 mps 764 mmHg 92%
    07:00 +6°C° 0 mm 1 mps 765 mmHg 92%
    08:00 +6°C° 0 mm 1 mps 765 mmHg 92%
    09:00 +7°C° 0 mm 1 mps 766 mmHg 91%
    10:00 +7°C° 0 mm 1 mps 766 mmHg 88%
    11:00 +7°C° 0 mm 2 mps 766 mmHg 85%
    12:00 +8°C° 0 mm 2 mps 767 mmHg 82%
    13:00 +8°C° 0 mm 2 mps 767 mmHg 82%
    14:00 +8°C° 0 mm 2 mps 767 mmHg 81%
    15:00 +9°C° 0 mm 2 mps 767 mmHg 81%
    16:00 +8°C° 0 mm 2 mps 767 mmHg 83%
    17:00 +8°C° 0 mm 2 mps 768 mmHg 85%
    18:00 +8°C° 0 mm 1 mps 768 mmHg 87%
    19:00 +8°C° 0 mm 1 mps 768 mmHg 87%
    20:00 +8°C° 0 mm 1 mps 769 mmHg 86%
    21:00 +8°C° 0 mm 1 mps 769 mmHg 86%
    22:00 +8°C° 0 mm 1 mps 769 mmHg 87%
    23:00 +7°C° 0 mm 1 mps 769 mmHg 87%

    17 December, Tuesday

    Time Temperature Precipitation Wind Pressure Humidity
    00:00 +7°C° 0 mm 1 mps 769 mmHg 88%
    01:00 +7°C° 0 mm 1 mps 769 mmHg 89%
    02:00 +7°C° 0 mm 1 mps 769 mmHg 90%
    03:00 +6°C° 0 mm 1 mps 769 mmHg 91%
    04:00 +6°C° 0 mm 1 mps 769 mmHg 92%
    05:00 +6°C° 0 mm 1 mps 769 mmHg 93%
    06:00 +5°C° 0 mm 1 mps 769 mmHg 94%
    07:00 +5°C° 0 mm 1 mps 770 mmHg 95%
    08:00 +5°C° 0 mm 1 mps 770 mmHg 96%
    09:00 +4°C° 0 mm 2 mps 770 mmHg 96%
    10:00 +5°C° 0 mm 2 mps 770 mmHg 92%
    11:00 +6°C° 0 mm 2 mps 770 mmHg 89%
    12:00 +7°C° 0 mm 2 mps 770 mmHg 85%
    13:00 +7°C° 0 mm 2 mps 770 mmHg 84%
    14:00 +7°C° 0 mm 2 mps 769 mmHg 84%
    15:00 +8°C° 0 mm 1 mps 769 mmHg 84%
    16:00 +8°C° 0 mm 1 mps 769 mmHg 87%
    17:00 +7°C° 0 mm 1 mps 769 mmHg 90%
    18:00 +6°C° 0 mm 1 mps 769 mmHg 92%
    19:00 +6°C° 0 mm 1 mps 769 mmHg 92%
    20:00 +6°C° 0 mm 1 mps 769 mmHg 93%
    21:00 +6°C° 0 mm 1 mps 769 mmHg 93%
    22:00 +6°C° 0 mm 1 mps 769 mmHg 92%
    23:00 +5°C° 0 mm 1 mps 769 mmHg 92%
    Show more